Terminal Aerodrome Forecast
Issued by NWS King Salmon, AK

Home | Current Version | Previous Version | Text Only | Print | Product List | Glossary On
Versions: 1 2 3 4 5 6 7 8 9 10 11 12 13 14 15 16 17 18 19 20 21 22 23 24 25 26 27 28 29 30 31 32 33 34 35 36 37 38 39 40 41 42
000
FTAK31 PANC 280532
TAFAKN
TAF
PAKN 280532Z 2806/2906 35020G30KT P6SM BKN050
      TEMPO 2806/2810 34012KT
     FM281100 32010G20KT P6SM SCT050
     FM282100 32010G15KT P6SM SCT025 BKN050
     FM290300 26006KT P6SM BKN250=

USA.gov is the U.S. government's official web portal to all federal, state and local government web resources and services.